Weather History for Plymouth, MA

Change the Weather History Date:

Wednesday, November 21, 2012

  Actual Average Record
Temperature  
Mean Temperature 44 °F -  
Max Temperature 52 °F 51 °F 70 °F (1953)
Min Temperature 35 °F 30 °F 16 °F (1966)
Degree Days  
Heating Degree Days 22    
Moisture  
Dew Point 40 °F    
Average Humidity 78    
Maximum Humidity 89    
Minimum Humidity 61    
Precipitation  
Precipitation 0.00 in - - ()
Sea Level Pressure  
Sea Level Pressure 30.20 in    
Wind  
Wind Speed 7 mph (NNE)    
Max Wind Speed 18 mph    
Max Gust Speed 23 mph    
Visibility 10 miles    
Events Rain    
Averages and records for this station are not official NWS values.
T = Trace of Precipitation, MM = Missing Value Source: NWS Daily Summary

Daily Weather History Graph

Daily Weather History Graph

Search for Another Location

Airport:

Trip Planner

Search our weather history database for the weather conditions in past years. The results will help you decide how hot, cold, wet, or windy it might be!

Date:

Astronomy

Nov. 21, 2012 Rise Set
Actual Time 6:40 AM EST 4:17 PM EST
Civil Twilight 6:09 AM EST 4:47 PM EST
Nautical Twilight 5:35 AM EST 5:21 PM EST
Astronomical Twilight 5:02 AM EST 5:54 PM EST
Moon 12:37 PM EST (11/21) No Moon Set
Length of Visible Light 10h 37m
Length of Day
9h 36m
First Quarter, 61% of the Moon is Illuminated
Nov 21
First Quarter
Nov 28
Full
Dec 6
Last Quarter
Dec 13
New
Dec 20
First Quarter

Hourly Weather History & Observations

Time (EST) Temp. Windchill Dew Point Humidity Pressure Visibility Wind Dir Wind Speed Gust Speed Precip Events Conditions
12:52 AM 44.1 °F 40.1 °F 34.0 °F 68% 30.14 in 10.0 mi NNE 6.9 mph - N/A   Clear
1:52 AM 36.0 °F 33.3 °F 32.0 °F 86% 30.14 in 10.0 mi NE 3.5 mph - N/A   Clear
2:52 AM 35.1 °F 32.2 °F 32.0 °F 89% 30.15 in 9.0 mi WSW 3.5 mph - N/A   Scattered Clouds
3:52 AM 36.0 °F - 33.1 °F 89% 30.15 in 10.0 mi Calm Calm - N/A   Clear
4:52 AM 36.0 °F - 33.1 °F 89% 30.15 in 10.0 mi Calm Calm - N/A   Clear
5:52 AM 37.0 °F - 33.1 °F 86% 30.16 in 10.0 mi Calm Calm - N/A   Clear
6:52 AM 39.0 °F 36.8 °F 36.0 °F 89% 30.19 in 10.0 mi NNW 3.5 mph - N/A   Clear
7:52 AM 39.9 °F 35.1 °F 36.0 °F 86% 30.20 in 10.0 mi NNW 6.9 mph - N/A   Clear
8:52 AM 45.0 °F 41.2 °F 37.9 °F 76% 30.21 in 10.0 mi NNW 6.9 mph - N/A   Partly Cloudy
9:52 AM 48.0 °F - 39.0 °F 71% 30.21 in 10.0 mi North 5.8 mph - N/A   Partly Cloudy
10:11 AM 50.0 °F - 39.2 °F 66% 30.20 in 10.0 mi North 8.1 mph - N/A   Mostly Cloudy
10:27 AM 51.8 °F - 39.2 °F 62% 30.20 in 10.0 mi NNE 15.0 mph - N/A   Scattered Clouds
10:52 AM 52.0 °F - 39.9 °F 63% 30.20 in 10.0 mi NNE 16.1 mph 21.9 mph N/A   Mostly Cloudy
11:05 AM 51.8 °F - 39.2 °F 62% 30.19 in 10.0 mi NE 18.4 mph 23.0 mph N/A   Scattered Clouds
11:48 AM 50.0 °F - 42.8 °F 76% 30.19 in 10.0 mi North 11.5 mph - N/A   Mostly Cloudy
11:52 AM 50.0 °F - 42.1 °F 74% 30.19 in 10.0 mi North 11.5 mph - N/A   Overcast
12:25 PM 50.0 °F - 42.8 °F 76% 30.19 in 10.0 mi NNE 9.2 mph - N/A   Overcast
12:52 PM 51.1 °F - 37.9 °F 61% 30.19 in 10.0 mi NE 11.5 mph 18.4 mph N/A   Scattered Clouds
1:52 PM 51.1 °F - 37.9 °F 61% 30.19 in 10.0 mi ENE 10.4 mph - N/A   Clear
2:52 PM 51.1 °F - 39.0 °F 63% 30.19 in 10.0 mi NE 12.7 mph - N/A   Clear
3:52 PM 50.0 °F - 39.9 °F 68% 30.19 in 10.0 mi NNE 9.2 mph - N/A   Mostly Cloudy
4:22 PM 48.2 °F - 39.2 °F 71% 30.19 in 10.0 mi NNE 5.8 mph - N/A   Overcast
4:52 PM 48.9 °F - 39.9 °F 71% 30.20 in 10.0 mi NNE 6.9 mph - N/A   Overcast
5:52 PM 48.9 °F - 41.0 °F 74% 30.22 in 10.0 mi NNE 6.9 mph - N/A   Overcast
6:43 PM 48.2 °F - 42.8 °F 82% 30.22 in 10.0 mi NNE 9.2 mph - N/A   Overcast
6:52 PM 48.9 °F - 43.0 °F 80% 30.23 in 10.0 mi North 13.8 mph 17.3 mph N/A   Overcast
7:11 PM 48.2 °F - 44.6 °F 87% 30.22 in 7.0 mi NNE 8.1 mph - 0.00 in Rain Light Rain
7:22 PM 48.2 °F - 44.6 °F 87% 30.22 in 7.0 mi Variable 6.9 mph - 0.00 in Rain Light Rain
7:31 PM 48.2 °F - 44.6 °F 87% 30.23 in 7.0 mi ENE 4.6 mph - 0.00 in Rain Light Rain
7:47 PM 48.2 °F - 44.6 °F 87% 30.23 in 9.0 mi NNE 8.1 mph - 0.00 in   Overcast
7:52 PM 48.9 °F - 45.0 °F 86% 30.23 in 9.0 mi NNE 6.9 mph - 0.00 in   Overcast
8:19 PM 48.2 °F - 44.6 °F 87% 30.23 in 9.0 mi NNE 3.5 mph - N/A   Overcast
8:52 PM 48.9 °F - 44.1 °F 83% 30.23 in 10.0 mi ENE 3.5 mph - N/A   Overcast
9:38 PM 48.2 °F - 44.6 °F 87% 30.23 in 10.0 mi NE 3.5 mph - N/A   Overcast
9:52 PM 48.9 °F - 44.1 °F 83% 30.23 in 10.0 mi NE 3.5 mph - N/A   Overcast
10:06 PM 48.2 °F - 44.6 °F 87% 30.23 in 10.0 mi ENE 3.5 mph - N/A   Overcast
10:52 PM 48.9 °F - 44.1 °F 83% 30.23 in 10.0 mi NE 3.5 mph - N/A   Overcast
11:52 PM 48.9 °F - 43.0 °F 80% 30.22 in 10.0 mi Calm Calm - N/A   Overcast